Weather History for KPMP - September, 2014

Change the Weather History Date:

Saturday, September 27, 2014

  Actual Average Record
Temperature  
Mean Temperature 83 °F -  
Max Temperature 90 °F 89 °F 94 °F (1974)
Min Temperature 77 °F 73 °F 63 °F (1977)
Cooling Degree Days 18    
Growing Degree Days 33 (Base 50)    
Moisture  
Dew Point 77 °F    
Average Humidity 78    
Maximum Humidity 93    
Minimum Humidity 67    
Precipitation  
Precipitation 0.39 in - - ()
Sea Level Pressure  
Sea Level Pressure 29.96 in    
Wind  
Wind Speed 10 mph (East)    
Max Wind Speed 21 mph    
Max Gust Speed 37 mph    
Visibility 9 miles    
Events Rain    
Averages and records for this station are not official NWS values.
T = Trace of Precipitation, MM = Missing Value Source: NWS Daily Summary

Daily Weather History Graph

Daily Weather History Graph

Search for Another Location

Airport or City:

Trip Planner

Search our weather history database for the weather conditions in past years. The results will help you decide how hot, cold, wet, or windy it might be!

Date:

Astronomy

Sep. 27, 2014 Rise Set
Actual Time 7:11 AM EDT 7:11 PM EDT
Civil Twilight 6:48 AM EDT 7:34 PM EDT
Nautical Twilight 6:21 AM EDT 8:01 PM EDT
Astronomical Twilight 5:54 AM EDT 8:27 PM EDT
Moon 10:05 AM EDT (9/27) 9:30 PM EDT (9/27)
Length of Visible Light 12h 46m
Length of Day
12h 00m
Waxing Crescent, 11% of the Moon is Illuminated
Sep 27
Waxing Crescent
Oct 1
First Quarter
Oct 8
Full
Oct 15
Last Quarter
Oct 23
New

Hourly Weather History & Observations

Time (EDT) Temp. Heat Index Dew Point Humidity Pressure Visibility Wind Dir Wind Speed Gust Speed Precip Events Conditions
12:53 AM 84.0 °F 92.6 °F 75.9 °F 76% 29.96 in 10.0 mi East 11.5 mph - N/A   Clear
1:53 AM 84.0 °F 93.7 °F 77.0 °F 79% 29.96 in 10.0 mi East 10.4 mph - N/A   Clear
2:53 AM 84.0 °F 94.8 °F 78.1 °F 82% 29.94 in 10.0 mi East 8.1 mph - N/A   Partly Cloudy
3:53 AM 84.0 °F 94.8 °F 78.1 °F 82% 29.94 in 10.0 mi ESE 10.4 mph - N/A   Partly Cloudy
4:53 AM 84.0 °F 94.8 °F 78.1 °F 82% 29.94 in 10.0 mi ESE 8.1 mph - N/A   Partly Cloudy
5:53 AM 82.9 °F 91.8 °F 77.0 °F 82% 29.94 in 10.0 mi East 11.5 mph - N/A   Clear
6:53 AM 82.9 °F 90.8 °F 75.9 °F 79% 29.95 in 10.0 mi East 8.1 mph - N/A   Clear
7:53 AM 82.9 °F 91.8 °F 77.0 °F 82% 29.96 in 10.0 mi East 6.9 mph - N/A   Scattered Clouds
8:53 AM 84.9 °F 95.3 °F 77.0 °F 77% 29.97 in 10.0 mi East 9.2 mph - N/A   Partly Cloudy
9:53 AM 87.1 °F 98.8 °F 77.0 °F 72% 29.99 in 10.0 mi East 10.4 mph - N/A   Scattered Clouds
10:53 AM 88.0 °F 103.1 °F 79.0 °F 75% 29.99 in 10.0 mi East 9.2 mph - N/A   Mostly Cloudy
11:53 AM 88.0 °F 103.1 °F 79.0 °F 75% 29.99 in 10.0 mi ENE 12.7 mph - N/A   Scattered Clouds
12:53 PM 89.1 °F 104.4 °F 79.0 °F 72% 29.98 in 10.0 mi ESE 13.8 mph - N/A   Scattered Clouds
1:53 PM 89.1 °F 104.4 °F 79.0 °F 72% 29.96 in 10.0 mi East 13.8 mph - N/A   Scattered Clouds
2:53 PM 89.1 °F 101.4 °F 77.0 °F 67% 29.95 in 10.0 mi East 10.4 mph - N/A   Scattered Clouds
3:53 PM 89.1 °F 101.4 °F 77.0 °F 67% 29.94 in 10.0 mi East 12.7 mph - N/A   Scattered Clouds
4:53 PM 88.0 °F 98.5 °F 75.9 °F 67% 29.93 in 10.0 mi East 11.5 mph - 0.00 in   Clear
5:53 PM 84.9 °F 93.3 °F 75.0 °F 72% 29.93 in 10.0 mi East 11.5 mph - 0.01 in   Partly Cloudy
6:53 PM 84.9 °F 95.3 °F 77.0 °F 77% 29.94 in 10.0 mi East 12.7 mph - N/A   Scattered Clouds
7:53 PM 84.0 °F 97.3 °F 80.1 °F 88% 29.95 in 10.0 mi East 9.2 mph - 0.01 in   Clear
8:53 PM 84.0 °F 96.0 °F 79.0 °F 85% 29.96 in 10.0 mi East 6.9 mph - N/A   Partly Cloudy
9:45 PM 82.9 °F 92.8 °F 78.1 °F 85% 29.98 in 8.0 mi East 6.9 mph - 0.02 in Rain Light Rain
9:53 PM 82.9 °F 91.8 °F 77.0 °F 82% 29.99 in 10.0 mi East 9.2 mph - 0.02 in   Scattered Clouds
10:53 PM 84.0 °F 94.8 °F 78.1 °F 82% 29.99 in 10.0 mi ESE 6.9 mph - N/A   Scattered Clouds
11:08 PM 80.1 °F 84.2 °F 73.0 °F 79% 29.99 in 1.8 mi ESE 20.7 mph 36.8 mph 0.15 in Rain Heavy Rain
11:13 PM 77.0 °F - 72.0 °F 84% 30.00 in 0.8 mi ESE 9.2 mph 36.8 mph 0.28 in Rain Heavy Rain
11:25 PM 79.0 °F - 73.0 °F 82% 29.99 in 3.0 mi East 3.5 mph - 0.35 in Rain Light Rain
11:53 PM 78.1 °F - 75.9 °F 93% 29.99 in 9.0 mi Calm Calm - 0.35 in   Partly Cloudy